Theta_e
312 313 313 313 314 315 316 315 315 315 316 315 315 316 316 317 316 316 317 317 317 317 318 318 318 317 317 317 318 317 317 317 317 318 318 318 318 318 318 318 318 317
305 306 306 308 309 310 312 313 314 314 315 315 316 316 317 317 317 316 317 317 317 317 318 318 318 318 318 317 317 317 317 317 317 318 318 318 318 318 318 318 318 318
301 302 303 303 305 306 307 309 310 311 312 313 314 315 316 315 316 316 317 317 317 317 317 317 318 317 317 317 317 317 316 317 316 317 317 317 318 318 318 318 318 317
299 299 299 300 301 302 303 303 304 306 307 307 308 310 311 313 313 314 314 313 315 316 317 317 317 317 317 317 317 317 317 317 317 317 317 317 317 318 318 318 317 317
296 297 297 297 298 298 299 299 300 301 302 303 304 305 305 306 308 309 311 312 313 314 315 315 316 316 316 316 316 316 316 316 317 317 317 317 318 317 317 317 317 316
295 295 295 296 295 296 297 296 298 298 298 299 300 301 302 303 303 305 306 307 309 311 312 313 314 315 315 315 316 316 316 316 316 316 316 316 317 318 318 317 317 316
294 294 294 294 294 294 294 295 295 295 296 297 297 298 299 299 301 302 303 305 306 307 309 311 312 313 314 315 315 315 316 316 316 316 316 316 316 317 317 317 316 316
292 292 292 293 292 293 293 293 293 294 294 295 295 296 297 298 299 300 301 303 303 305 307 308 310 311 312 313 314 314 314 316 316 316 316 316 317 316 317 317 317 316
290 290 290 290 290 291 290 291 291 292 293 293 294 294 295 296 297 298 299 300 301 302 304 305 307 308 310 311 312 313 313 314 315 315 316 315 315 316 316 317 316 316
289 288 288 288 288 289 288 288 289 290 290 291 292 293 293 294 295 296 297 297 298 299 300 301 302 304 306 307 309 310 311 312 313 314 315 315 315 316 316 316 316 316
286 286 286 287 287 286 286 286 286 287 288 290 290 290 291 292 293 293 294 295 295 296 297 298 299 301 303 305 307 308 309 310 311 312 313 314 315 315 310 315 315 315
285 285 285 285 284 285 285 286 286 286 287 287 288 289 289 289 290 290 291 291 292 294 295 296 297 299 301 303 305 306 308 309 309 310 311 312 313 314 315 315 315 316
284 284 284 284 284 284 284 284 285 284 285 286 285 286 286 287 287 288 288 288 290 291 292 294 296 298 299 301 303 303 304 305 307 308 310 311 312 313 314 314 315 315
283 283 284 284 284 285 286 287 286 286 286 285 285 285 285 285 286 288 287 287 288 288 291 293 295 296 299 298 296 296 297 297 298 301 304 307 309 310 311 312 313 314
282 283 283 283 284 284 285 284 285 284 285 285 285 285 286 285 286 287 286 287 287 287 288 290 293 295 296 295 295 294 295 294 295 296 298 300 303 305 307 309 311 312
282 282 282 283 283 284 284 284 284 284 284 285 285 284 284 285 285 285 285 286 287 287 288 289 290 293 292 292 293 294 294 294 294 294 296 297 298 300 303 305 308 310
281 281 281 282 281 281 282 282 283 283 283 284 284 284 285 285 285 285 285 285 286 287 287 288 290 292 291 294 294 294 293 293 292 292 293 294 296 298 299 300 303 306
281 280 281 281 281 281 281 282 282 282 283 283 283 284 284 284 284 285 285 285 285 286 286 286 287 290 293 293 293 293 292 292 292 292 292 293 294 295 296 298 299 301
280 280 280 280 281 281 281 281 281 282 283 283 283 283 283 284 284 284 284 284 284 285 286 286 286 290 292 293 293 293 293 292 292 292 292 292 293 293 294 296 297 298
280 279 280 280 281 281 281 281 282 282 281 282 282 282 283 283 283 283 283 284 284 284 285 285 286 288 291 292 292 292 292 292 291 291 291 292 292 293 294 294 295 295
280 279 279 279 279 280 280 280 281 281 282 282 282 282 282 283 283 283 283 284 284 284 284 284 286 290 291 291 291 292 292 292 289 290 290 291 292 292 293 293 294 295
279 279 279 279 279 279 280 280 280 280 281 281 281 281 281 281 281 281 282 283 283 283 283 284 285 289 290 290 291 291 292 289 287 288 289 290 290 291 292 293 294 294
279 279 279 278 278 279 279 280 280 280 280 279 281 281 281 281 281 282 282 282 283 283 283 283 284 286 289 290 290 291 290 286 286 287 287 288 289 290 291 292 293 294
278 278 278 278 278 279 279 279 279 279 279 280 280 281 281 281 281 282 282 281 282 282 283 283 283 285 288 289 290 291 290 286 285 286 287 287 288 288 290 291 291 289
278 278 278 278 278 278 278 279 279 279 279 279 280 280 281 281 281 281 282 282 281 282 282 282 283 284 287 288 289 290 289 284 285 286 286 286 286 288 289 290 290 289
278 278 277 277 277 277 277 278 279 279 279 279 280 279 280 280 281 281 281 281 282 281 282 282 282 283 284 288 289 290 290 287 284 285 285 285 285 286 287 288 289 289
Wind_Speed
1 1 2 3 4 3 4 4 4 5 6 5 6 6 6 6 6 7 8 8 9 10 10 10 10 10 10 10 11 10 10 11 11 10 12 12 12 13 14 14 14 13
5 4 3 2 2 2 3 3 4 4 5 5 5 5 5 5 5 6 7 8 8 9 9 9 9 10 10 10 10 10 10 10 12 9 11 14 13 13 15 15 15 14
5 6 5 5 4 4 4 4 4 4 4 4 4 3 5 4 5 4 6 6 7 8 8 9 9 10 10 10 10 10 10 11 12 10 11 13 13 13 13 13 13 15
5 4 4 4 4 4 5 5 5 5 5 5 5 5 5 5 5 6 5 6 6 7 7 7 8 9 9 10 10 10 11 11 11 10 11 11 11 12 13 12 13 12
2 3 2 3 3 3 3 3 4 5 5 5 6 6 6 6 6 6 6 6 5 6 6 7 7 8 8 8 9 10 10 10 10 10 11 12 12 11 12 11 13 14
3 3 3 3 3 3 3 3 3 3 4 4 5 6 5 5 5 6 6 7 6 6 7 7 7 7 7 8 8 9 9 9 10 10 12 13 12 11 10 11 12 14
4 4 4 3 3 3 3 3 3 3 3 4 4 5 5 5 5 5 6 7 7 7 7 7 7 8 6 7 8 9 9 10 10 10 12 12 11 13 12 12 13 14
4 3 4 4 4 5 5 4 4 4 4 4 4 4 4 5 5 6 5 6 6 7 7 7 7 8 7 7 8 9 10 8 9 10 12 13 12 13 12 10 12 14
3 4 3 4 4 4 5 5 5 4 4 5 5 5 4 4 5 5 6 6 6 6 6 6 7 7 7 7 8 8 10 9 9 10 11 12 13 13 13 11 13 14
5 4 5 5 5 4 4 4 3 3 3 4 5 5 6 6 5 5 5 6 6 6 6 7 7 7 7 7 8 9 9 10 9 10 11 12 12 13 13 12 13 14
5 5 6 6 6 5 4 4 4 4 3 3 4 4 4 5 5 5 6 7 7 8 8 7 7 8 8 8 8 8 9 10 10 10 10 11 12 12 12 12 13 14
4 4 5 4 4 4 4 4 4 4 4 4 3 4 4 3 4 4 4 5 5 6 6 7 7 7 8 8 8 8 8 9 9 10 10 11 11 12 12 11 12 13
4 4 4 4 4 4 3 3 3 3 3 3 3 3 4 5 4 4 4 3 4 4 5 6 7 7 8 7 8 10 10 10 9 9 10 10 10 11 11 12 12 12
3 3 3 3 3 3 3 3 3 3 3 3 2 3 3 4 5 5 4 3 4 4 4 4 5 6 6 8 9 9 9 10 11 11 11 11 11 11 10 11 11 12
1 1 1 1 1 0 1 2 3 3 3 3 4 4 3 3 3 4 5 6 5 4 4 4 4 4 4 6 8 9 9 10 10 10 10 11 11 11 11 11 11 11
3 3 3 4 6 7 6 6 6 6 6 5 5 4 4 4 4 4 4 5 7 7 5 4 3 3 5 8 7 7 9 9 10 9 8 9 10 11 11 9 10 11
4 4 3 4 4 4 4 4 4 5 4 4 5 5 6 6 5 6 6 5 5 6 7 6 5 4 9 8 8 10 7 8 9 10 10 9 8 10 11 12 10 10
2 2 2 3 3 3 4 4 4 4 4 4 5 7 7 5 5 5 5 5 5 5 5 5 5 8 10 9 10 10 8 7 7 9 9 8 8 9 9 10 12 12
2 3 3 3 4 3 3 3 3 4 4 5 6 4 4 5 5 5 4 4 4 6 7 7 5 8 10 11 11 11 11 9 5 7 8 8 8 9 9 8 9 9
1 2 3 4 4 4 4 4 4 5 4 3 3 4 4 5 5 5 4 5 5 5 6 7 6 7 10 11 11 11 11 9 5 7 7 8 8 9 8 8 9 10
2 2 3 3 3 3 3 4 4 4 5 5 5 6 7 7 8 8 7 6 6 5 5 7 6 9 10 11 12 12 12 9 5 6 7 7 8 8 9 9 9 10
2 2 2 3 3 3 3 4 4 4 6 6 4 4 3 4 4 4 6 8 7 6 6 8 9 10 10 11 12 12 12 6 5 6 7 8 8 8 8 8 8 9
1 2 2 3 3 4 4 4 4 5 4 3 5 5 4 5 5 5 4 5 7 7 6 8 9 10 11 12 12 13 8 5 6 6 6 8 8 7 8 8 8 8
1 2 2 3 3 4 5 4 4 4 4 3 5 8 8 7 7 8 6 4 5 7 6 8 9 10 13 12 12 12 9 6 6 6 8 7 8 6 6 7 8 13
1 1 1 2 3 3 3 4 5 5 5 4 4 4 6 7 7 8 9 6 4 5 9 9 8 10 11 10 12 12 9 5 5 6 8 8 7 9 7 7 9 8
0 1 1 2 3 3 3 4 4 5 5 6 5 4 6 7 6 6 8 9 7 6 6 6 8 8 7 11 11 12 11 7 4 6 8 9 8 8 11 10 7 8
Wind_Direction
35 277 243 243 251 251 265 268 255 248 253 248 244 253 240 246 234 227 230 230 228 232 232 232 231 233 233 234 234 236 236 236 238 234 236 237 240 239 241 238 239 240
31 29 14 347 326 313 297 280 275 261 266 262 253 259 261 255 252 237 238 238 234 235 236 237 234 234 234 234 233 234 237 234 238 229 238 237 240 239 241 239 240 241
34 30 23 17 358 345 338 333 330 315 300 293 295 289 286 278 275 261 252 247 248 244 239 237 238 236 235 236 235 235 237 237 238 232 233 239 238 241 241 240 241 239
41 35 29 13 11 358 350 349 343 339 333 332 331 322 317 311 304 294 287 271 262 261 256 248 242 241 238 238 237 239 239 239 239 235 239 240 238 240 243 241 243 243
69 63 53 47 23 10 9 6 352 346 339 330 328 334 330 326 319 313 306 297 284 278 271 264 257 252 246 245 239 244 242 244 242 236 240 243 240 237 242 240 243 245
46 43 40 42 27 27 20 12 349 344 335 334 329 321 322 320 318 315 313 310 305 295 288 280 273 265 254 251 247 246 247 245 246 237 242 246 246 240 242 240 240 244
37 34 29 24 30 39 39 19 359 345 338 326 319 327 327 325 321 316 314 312 311 307 301 297 290 283 271 259 255 254 251 250 252 245 246 249 249 249 243 244 245 246
42 40 32 25 29 28 27 15 4 354 337 336 338 323 334 325 323 323 319 316 313 311 309 307 303 297 293 279 269 265 262 256 254 252 251 254 251 252 249 242 247 248
45 45 40 45 46 33 25 11 1 349 344 345 337 334 334 334 330 327 326 323 320 316 315 314 312 308 305 298 288 280 275 269 260 258 257 257 256 255 254 249 248 249
39 27 35 34 39 28 22 10 355 348 341 347 341 336 340 339 339 333 332 332 328 328 327 322 320 316 312 308 301 297 292 285 280 269 264 262 261 261 259 255 252 255
33 27 29 23 21 10 9 1 358 353 355 353 348 347 341 341 344 345 344 344 339 334 329 327 324 321 319 315 309 304 299 297 293 288 280 274 270 267 265 260 258 256
36 31 28 18 5 1 357 351 348 356 352 346 353 343 343 350 346 343 350 338 330 327 323 325 327 326 323 321 316 308 301 298 297 294 288 282 278 275 272 268 264 263
33 24 12 5 359 346 340 343 347 338 339 345 337 338 345 347 347 345 342 337 325 329 332 334 335 336 332 323 333 335 328 322 312 301 292 290 285 284 281 277 272 269
18 353 359 345 330 329 332 326 326 332 332 313 321 350 354 351 342 339 328 335 337 339 331 336 338 335 339 356 342 334 329 323 321 316 314 309 303 298 293 286 281 276
5 324 303 289 267 261 297 347 348 350 351 355 1 1 351 336 331 336 347 350 350 346 337 333 339 336 358 339 339 336 333 324 320 315 311 308 305 304 302 301 297 290
15 9 4 2 11 10 3 354 352 350 352 355 354 349 342 343 350 352 2 352 341 341 341 339 333 321 326 322 324 330 330 326 317 309 303 302 303 302 299 294 293 296
9 359 349 1 351 351 347 351 347 342 348 351 350 350 350 348 348 355 358 349 342 333 334 334 331 322 318 327 328 329 328 325 323 315 311 306 304 305 304 304 301 296
350 337 342 333 348 350 350 339 333 345 353 353 352 351 349 344 348 350 337 336 329 325 322 320 317 314 320 326 328 328 327 322 321 318 313 312 307 304 303 305 305 304
345 1 352 356 356 348 341 344 344 352 356 358 355 335 324 341 335 335 335 326 328 329 325 320 315 312 318 323 325 325 324 325 314 317 311 307 307 301 299 301 304 305
12 10 7 349 345 346 350 354 1 359 341 325 323 330 339 333 333 335 330 333 330 322 312 308 308 308 318 320 321 322 323 326 310 312 308 302 302 302 301 304 307 309
32 22 6 350 346 342 347 356 352 342 344 344 347 343 339 336 333 334 331 327 324 320 313 307 302 313 320 320 321 321 321 324 308 307 306 304 301 302 301 300 302 301
32 11 353 346 343 342 349 349 351 341 334 331 334 325 306 298 298 290 312 320 318 321 320 315 311 318 319 318 317 314 319 315 307 305 308 306 307 308 307 303 302 299
21 6 349 343 341 348 348 346 342 336 326 320 325 319 320 318 313 310 302 303 309 312 312 304 305 311 315 314 313 313 317 308 304 303 298 303 300 302 302 302 299 304
351 354 345 337 346 344 333 325 317 310 316 334 333 328 329 326 324 318 313 303 299 303 303 304 301 303 306 307 308 310 313 307 303 304 302 299 301 295 296 297 296 295
292 306 310 318 319 309 312 315 318 314 309 317 318 314 307 313 319 315 312 310 291 285 294 292 292 297 299 297 302 306 310 304 301 301 300 298 303 306 301 297 298 291
221 289 289 294 297 297 297 301 308 319 325 329 320 318 313 316 309 305 306 306 309 301 295 286 290 289 291 290 296 299 302 300 296 302 302 303 303 302 311 307 297 297